When you browse on this site, cookies collect data to enhance your experience and personalize the content and advertising you see.
Visit our Privacy Policy to learn more. By continuing to use the site, you agree to this use of cookies and data.
  • In Hungary
  • List of Countries
  • For 7 days
  • Water Temperature
  • Weather Map
  • News
  • Weather Widgets
  • user-avatar
    Login

    Hourly Weather Vostochnyy

    Today, 18 October, Friday

    Time Temperature Precipitation Wind Pressure Humidity
    00:00 +2°C° 0 mm 5 mps 745 mmHg 72%
    01:00 +2°C° 0 mm 6 mps 744 mmHg 72%
    02:00 +2°C° 0 mm 6 mps 744 mmHg 72%
    03:00 +2°C° 0 mm 6 mps 744 mmHg 73%
    04:00 +2°C° 0 mm 6 mps 743 mmHg 73%
    05:00 +2°C° 0 mm 6 mps 743 mmHg 69%
    06:00 +2°C° 0 mm 7 mps 743 mmHg 66%
    07:00 +2°C° 0 mm 7 mps 742 mmHg 62%
    08:00 +2°C° 0 mm 8 mps 742 mmHg 56%
    09:00 +5°C° 0 mm 8 mps 742 mmHg 50%
    10:00 +6°C° 0 mm 9 mps 742 mmHg 44%
    11:00 +7°C° 0 mm 9 mps 742 mmHg 42%
    12:00 +8°C° 0 mm 9 mps 741 mmHg 40%
    13:00 +8°C° 0 mm 9 mps 741 mmHg 38%
    14:00 +9°C° 0 mm 8 mps 740 mmHg 39%
    15:00 +9°C° 0 mm 8 mps 740 mmHg 40%
    16:00 +9°C° 0 mm 7 mps 740 mmHg 41%
    17:00 +8°C° 0 mm 7 mps 740 mmHg 43%
    18:00 +8°C° 0 mm 6 mps 740 mmHg 46%
    19:00 +7°C° 0 mm 6 mps 739 mmHg 48%
    20:00 +7°C° 0 mm 6 mps 739 mmHg 50%
    21:00 +7°C° 0 mm 6 mps 739 mmHg 52%
    22:00 +7°C° 0 mm 5 mps 739 mmHg 54%
    23:00 +6°C° 0 mm 5 mps 738 mmHg 58%

    Tomorrow, 19 October, Saturday

    Time Temperature Precipitation Wind Pressure Humidity
    00:00 +6°C° 0 mm 4 mps 738 mmHg 62%
    01:00 +6°C° 0 mm 4 mps 738 mmHg 66%
    02:00 +7°C° 0 mm 3 mps 738 mmHg 69%
    03:00 +5°C° 0 mm 3 mps 738 mmHg 72%
    04:00 +5°C° 0 mm 3 mps 737 mmHg 75%
    05:00 +5°C° 0 mm 3 mps 737 mmHg 77%
    06:00 +5°C° 0 mm 3 mps 737 mmHg 79%
    07:00 +6°C° 0 mm 2 mps 737 mmHg 81%
    08:00 +5°C° 0 mm 3 mps 738 mmHg 78%
    09:00 +7°C° 0 mm 3 mps 738 mmHg 75%
    10:00 +7°C° 0 mm 3 mps 739 mmHg 71%
    11:00 +7°C° 0 mm 3 mps 739 mmHg 73%
    12:00 +6°C° 0 mm 4 mps 740 mmHg 74%
    13:00 +6°C° 0 mm 4 mps 740 mmHg 75%
    14:00 +5°C° 0 mm 5 mps 741 mmHg 77%
    15:00 +3°C° 0 mm 6 mps 741 mmHg 79%
    16:00 +3°C° 0 mm 7 mps 741 mmHg 81%
    17:00 +2°C° 0 mm 7 mps 742 mmHg 80%
    18:00 0°C° 0 mm 7 mps 743 mmHg 79%
    19:00 0°C° 0 mm 7 mps 743 mmHg 77%
    20:00 -1°C° 0 mm 7 mps 744 mmHg 76%
    21:00 -1°C° 0 mm 6 mps 744 mmHg 76%
    22:00 -2°C° 0 mm 6 mps 745 mmHg 75%
    23:00 -3°C° 0 mm 6 mps 745 mmHg 76%

    Day after tomorrow, 20 October, Sunday

    Time Temperature Precipitation Wind Pressure Humidity
    00:00 -3°C° 0 mm 6 mps 746 mmHg 76%
    01:00 -4°C° 0 mm 6 mps 746 mmHg 77%
    02:00 -4°C° 0 mm 6 mps 746 mmHg 78%
    03:00 -5°C° 0 mm 6 mps 747 mmHg 78%
    04:00 -5°C° 0 mm 6 mps 747 mmHg 79%
    05:00 -5°C° 0 mm 5 mps 747 mmHg 78%
    06:00 -6°C° 0 mm 5 mps 748 mmHg 78%
    07:00 -6°C° 0 mm 5 mps 748 mmHg 78%
    08:00 -5°C° 0 mm 5 mps 748 mmHg 71%
    09:00 -4°C° 0 mm 5 mps 749 mmHg 65%
    10:00 -2°C° 0 mm 5 mps 749 mmHg 59%
    11:00 -1°C° 0 mm 5 mps 749 mmHg 54%
    12:00 0°C° 0 mm 5 mps 749 mmHg 50%
    13:00 +1°C° 0 mm 5 mps 749 mmHg 46%
    14:00 +1°C° 0 mm 5 mps 749 mmHg 46%
    15:00 +1°C° 0 mm 4 mps 749 mmHg 47%
    16:00 +1°C° 0 mm 4 mps 749 mmHg 47%
    17:00 0°C° 0 mm 4 mps 749 mmHg 51%
    18:00 0°C° 0 mm 3 mps 749 mmHg 54%
    19:00 -1°C° 0 mm 3 mps 749 mmHg 57%
    20:00 -2°C° 0 mm 3 mps 750 mmHg 58%
    21:00 -2°C° 0 mm 3 mps 750 mmHg 58%
    22:00 -2°C° 0 mm 3 mps 750 mmHg 58%
    23:00 -2°C° 0 mm 3 mps 750 mmHg 58%

    21 October, Monday

    Time Temperature Precipitation Wind Pressure Humidity
    00:00 -4°C° 0 mm 3 mps 750 mmHg 58%
    01:00 -4°C° 0 mm 3 mps 750 mmHg 59%
    02:00 -3°C° 0 mm 2 mps 750 mmHg 59%
    03:00 -3°C° 0 mm 2 mps 750 mmHg 59%
    04:00 -3°C° 0 mm 2 mps 749 mmHg 59%
    05:00 -3°C° 0 mm 2 mps 750 mmHg 58%
    06:00 -3°C° 0 mm 2 mps 750 mmHg 58%
    07:00 -3°C° 0 mm 2 mps 750 mmHg 58%
    08:00 -2°C° 0 mm 3 mps 750 mmHg 52%
    09:00 -1°C° 0 mm 3 mps 750 mmHg 47%
    10:00 +1°C° 0 mm 3 mps 750 mmHg 41%
    11:00 +2°C° 0 mm 3 mps 749 mmHg 38%
    12:00 +3°C° 0 mm 3 mps 749 mmHg 35%
    13:00 +4°C° 0 mm 3 mps 749 mmHg 32%
    14:00 +3°C° 0 mm 3 mps 748 mmHg 35%
    15:00 +4°C° 0 mm 2 mps 748 mmHg 37%
    16:00 +4°C° 0 mm 2 mps 748 mmHg 40%
    17:00 +3°C° 0 mm 2 mps 748 mmHg 41%
    18:00 +3°C° 0 mm 2 mps 748 mmHg 41%
    19:00 +2°C° 0 mm 2 mps 748 mmHg 42%
    20:00 +2°C° 0 mm 2 mps 747 mmHg 43%
    21:00 +1°C° 0 mm 2 mps 747 mmHg 44%
    22:00 +1°C° 0 mm 2 mps 747 mmHg 45%
    23:00 +1°C° 0 mm 2 mps 747 mmHg 45%

    22 October, Tuesday

    Time Temperature Precipitation Wind Pressure Humidity
    00:00 0°C° 0 mm 3 mps 746 mmHg 45%
    01:00 -1°C° 0 mm 3 mps 746 mmHg 45%
    02:00 -1°C° 0 mm 3 mps 746 mmHg 45%
    03:00 -1°C° 0 mm 3 mps 746 mmHg 45%
    04:00 -1°C° 0 mm 3 mps 745 mmHg 45%
    05:00 -1°C° 0 mm 3 mps 745 mmHg 46%
    06:00 -1°C° 0 mm 3 mps 745 mmHg 47%
    07:00 0°C° 0 mm 3 mps 745 mmHg 47%
    08:00 +1°C° 0 mm 3 mps 745 mmHg 45%
    09:00 +3°C° 0 mm 4 mps 745 mmHg 42%
    10:00 +4°C° 0 mm 4 mps 745 mmHg 40%
    11:00 +5°C° 0 mm 4 mps 744 mmHg 40%
    12:00 +6°C° 0 mm 4 mps 744 mmHg 39%
    13:00 +7°C° 0 mm 5 mps 744 mmHg 39%
    14:00 +7°C° 0 mm 4 mps 743 mmHg 40%
    15:00 +7°C° 0 mm 4 mps 743 mmHg 42%
    16:00 +6°C° 0 mm 4 mps 742 mmHg 44%
    17:00 +6°C° 0 mm 4 mps 742 mmHg 45%
    18:00 +5°C° 0 mm 4 mps 742 mmHg 45%
    19:00 +3°C° 0 mm 5 mps 742 mmHg 46%
    20:00 +3°C° 0 mm 5 mps 741 mmHg 47%
    21:00 +3°C° 0 mm 6 mps 741 mmHg 47%
    22:00 +3°C° 0 mm 6 mps 740 mmHg 47%
    23:00 +3°C° 0 mm 6 mps 740 mmHg 50%

    23 October, Wednesday

    Time Temperature Precipitation Wind Pressure Humidity
    00:00 +3°C° 0 mm 6 mps 739 mmHg 53%
    01:00 +2°C° 0 mm 6 mps 739 mmHg 56%
    02:00 +3°C° 0 mm 6 mps 739 mmHg 58%
    03:00 +3°C° 0 mm 7 mps 738 mmHg 60%
    04:00 +3°C° 0 mm 7 mps 738 mmHg 63%
    05:00 +3°C° 0 mm 7 mps 738 mmHg 68%
    06:00 +3°C° 0 mm 6 mps 737 mmHg 73%
    07:00 +3°C° 0 mm 6 mps 737 mmHg 78%
    08:00 +4°C° 0 mm 6 mps 737 mmHg 76%
    09:00 +5°C° 0 mm 6 mps 737 mmHg 73%
    10:00 +8°C° 0 mm 6 mps 737 mmHg 71%
    11:00 +8°C° 0.1 mm 7 mps 737 mmHg 70%
    12:00 +9°C° 0.1 mm 7 mps 737 mmHg 69%
    13:00 +9°C° 0.1 mm 7 mps 737 mmHg 68%
    14:00 +8°C° 0.2 mm 6 mps 737 mmHg 72%
    15:00 +8°C° 0.2 mm 6 mps 737 mmHg 77%
    16:00 +7°C° 0.2 mm 6 mps 737 mmHg 81%
    17:00 +7°C° 0 mm 5 mps 738 mmHg 84%
    18:00 +6°C° 0 mm 5 mps 739 mmHg 87%
    19:00 +5°C° 0 mm 4 mps 739 mmHg 90%
    20:00 +4°C° 0 mm 4 mps 740 mmHg 87%
    21:00 +4°C° 0 mm 3 mps 740 mmHg 83%
    22:00 +4°C° 0 mm 2 mps 741 mmHg 80%
    23:00 +4°C° 0 mm 2 mps 741 mmHg 80%
    Show more